Yatton Keynell, United Kingdom

1:06 AM GMT on March 22, 2019 (GMT +0000)
Yatton Keynell

Weather History for 03740 - July, 2005

Change the Weather History Date:

Sunday, July 31, 2005

  Actual Average Record
Temperature  
Mean Temperature 60 °F -  
Max Temperature 64 °F 68 °F - ()
Min Temperature 55 °F 53 °F - ()
Degree Days  
Heating Degree Days 6    
Growing Degree Days 10 (Base 50)    
Moisture  
Dew Point 56 °F    
Average Humidity 90    
Maximum Humidity 100    
Minimum Humidity 66    
Precipitation  
Precipitation 0.16 in 0.08 in - ()
Sea Level Pressure  
Sea Level Pressure 29.95 in    
Wind  
Wind Speed 5 mph ()    
Max Wind Speed 12 mph    
Max Gust Speed -    
Visibility 4.1 miles    
Events Fog , Rain    
T = Trace of Precipitation, MM = Missing Value Source: Averaged Metar Reports

Daily Weather History Graph

Daily Weather History Graph

Search for Another Location

Airport or City:

Astronomy

Jul. 31, 2005 Rise Set
Actual Time 5:30 AM BST 8:57 PM BST
Civil Twilight 4:49 AM BST 9:38 PM BST
Nautical Twilight 3:54 AM BST 10:32 PM BST
Astronomical Twilight 2:35 AM BST 11:49 PM BST
Moon 12:36 AM BST (7/31) 6:29 PM BST (7/31)
Length of Visible Light 16h 48m
Length of Day
15h 27m
Waning Crescent, 19% of the Moon is Illuminated
Jul 31
Waning Crescent
Aug 5
New
Aug 13
First Quarter
Aug 19
Full
Aug 26
Last Quarter

Hourly Weather History & Observations

Time (BST) Temp. Dew Point Humidity Pressure Visibility Wind Dir Wind Speed Gust Speed Precip Events Conditions
12:50 AM 56 °F 55 °F 97% 29.91 in 2 mi West 5.8 mph - - Fog Light Fog
12:50 AM 55.4 °F 55.4 °F 100% 29.89 in 2.5 mi West 5.8 mph - N/A   Scattered Clouds
1:50 AM 55.4 °F 55.4 °F 100% 29.89 in 0.7 mi West 6.9 mph - N/A Fog Fog
2:50 AM 55.4 °F 55.4 °F 100% 29.89 in 1.9 mi WNW 6.9 mph - N/A   Mostly Cloudy
3:50 AM 56 °F 56 °F 99% 29.91 in 0 mi West 6.9 mph - - Fog Partial Fog
3:50 AM 57.2 °F 55.4 °F 94% 29.89 in 0.3 mi West 6.9 mph - N/A Fog Fog
4:50 AM 57.2 °F 55.4 °F 94% 29.89 in 2.2 mi West 5.8 mph - N/A   Mostly Cloudy
5:50 AM 57.2 °F 55.4 °F 94% 29.92 in 1.9 mi West 5.8 mph - N/A   Mostly Cloudy
6:50 AM 56 °F 56 °F 100% 29.93 in 1 mi WSW 5.8 mph - - Rain Light Drizzle
6:50 AM 57.2 °F 55.4 °F 94% 29.92 in 0.6 mi WSW 5.8 mph - N/A   Light Drizzle
7:50 AM 57.2 °F 57.2 °F 100% 29.92 in - West 6.9 mph - N/A   Light Drizzle
8:50 AM 59.0 °F 57.2 °F 94% 29.92 in 3.7 mi WNW 4.6 mph - N/A   Mostly Cloudy
9:50 AM 60 °F 56 °F 82% 29.95 in 4 mi NNW 3.5 mph - -   Haze
9:50 AM 60.8 °F 55.4 °F 82% 29.95 in 4.3 mi NNW 3.5 mph - N/A   Haze
10:50 AM 59.0 °F 57.2 °F 94% 29.95 in 5.0 mi North 5.8 mph - N/A Rain Light Rain
11:50 AM 60.8 °F 55.4 °F 82% 29.98 in 5.0 mi North 5.8 mph - N/A   Haze
12:50 PM 61 °F 56 °F 78% 29.98 in 6 mi North 3.5 mph - -   Partly Cloudy
12:50 PM 60.8 °F 55.4 °F 82% 29.98 in 6.2 mi North 3.5 mph - N/A   Mostly Cloudy
1:50 PM 60.8 °F 57.2 °F 88% 29.98 in 6.2 mi North 2.3 mph - N/A   Mostly Cloudy
2:50 PM 62.6 °F 55.4 °F 77% 29.98 in 6.2 mi NNW 3.5 mph - N/A   Overcast
3:50 PM 63 °F 54 °F 66% 29.98 in 12 mi WNW 2.3 mph - -   Partly Cloudy
3:50 PM 62.6 °F 53.6 °F 72% 29.98 in 6.2 mi WNW 2.3 mph - N/A   Mostly Cloudy
4:50 PM 64.4 °F 55.4 °F 73% 29.98 in 6.2 mi WNW 1.2 mph - N/A Rain Light Rain Showers
5:50 PM 64.4 °F 55.4 °F 73% 29.98 in 6.2 mi NW 2.3 mph - N/A   Mostly Cloudy
6:50 PM 59 °F 57 °F 90% 29.99 in 3 mi WNW 11.5 mph - - Rain Heavy Rain Showers
6:50 PM 59.0 °F 57.2 °F 94% 29.98 in 3.1 mi WNW 11.5 mph - N/A Rain Rain Showers
7:50 PM 59.0 °F 57.2 °F 94% 29.98 in 6.2 mi North 2.3 mph - N/A   Mostly Cloudy
8:50 PM 59.0 °F 57.2 °F 94% 29.98 in 6.2 mi North 2.3 mph - N/A   Mostly Cloudy
9:50 PM 58 °F 57 °F 95% 30.02 in 4 mi South 2.3 mph - -   Mist
9:50 PM 59.0 °F 57.2 °F 94% 30.01 in 3.7 mi South 2.3 mph - N/A   Mostly Cloudy
10:50 PM 57.2 °F 55.4 °F 94% 30.01 in 6.2 mi WNW 3.5 mph - N/A   Mostly Cloudy
11:50 PM 59.0 °F 57.2 °F 94% 30.01 in 3.7 mi West 2.3 mph - N/A   Mostly Cloudy